Theta_e
313 315 314 313 314 313 312 312 313 315 315 315 317 315 316 319 316 315 316 314 314 315 315 316 316 315 316 316 316 314 313 314 314 314 315 315 315 316 316 316 315 315 315 314 314 314 314 314 314 314 315 314 314 314 314 314 314 314 314 314 314 314 314 314 314 314 314 314 315 316 316 316 317 317 316 318 319 319 318 317 319 322 324 324 322 322
313 315 315 313 314 314 313 313 313 314 315 315 317 316 316 319 317 315 316 313 314 316 316 316 316 315 316 317 316 314 313 313 314 314 315 316 316 316 316 316 316 315 315 315 315 315 314 314 314 314 315 314 315 314 314 314 314 314 314 314 315 314 314 315 314 314 314 314 315 315 316 316 316 317 316 317 318 319 319 317 318 322 325 328 325 322
314 314 314 313 313 314 314 314 313 314 316 316 317 317 318 319 317 315 315 314 313 315 316 317 317 316 316 317 316 315 314 314 315 315 315 316 316 316 316 316 316 315 315 315 315 315 314 314 314 314 314 314 315 315 314 315 314 314 315 314 314 314 314 315 314 314 314 315 315 315 315 316 316 317 317 317 318 320 322 320 318 319 322 325 325 322
314 314 314 313 313 314 315 314 314 315 316 317 317 316 318 320 317 316 316 315 314 314 316 318 318 318 316 317 317 315 316 316 316 316 315 315 316 316 316 316 316 316 316 316 315 315 315 315 315 314 314 314 314 315 314 315 315 314 315 315 314 314 314 314 314 314 314 314 315 316 316 316 315 316 317 317 318 319 321 320 317 317 317 319 320 321
315 313 312 313 314 315 315 315 316 316 314 318 319 317 320 320 319 319 317 314 313 315 316 315 316 317 316 316 317 316 316 316 316 317 316 316 316 316 316 316 316 317 316 317 316 315 315 314 315 315 315 315 314 314 314 314 315 315 315 315 314 314 314 314 314 314 314 314 315 316 316 316 315 315 316 316 316 316 317 317 316 317 318 318 319 320
315 312 311 315 316 316 316 315 318 318 314 316 320 319 320 320 320 320 318 315 315 318 318 315 315 319 319 316 316 315 316 317 316 316 315 316 317 316 316 316 316 317 317 317 317 316 316 315 315 316 315 315 315 315 315 314 314 315 314 314 314 314 314 314 314 314 314 314 314 315 315 315 315 315 315 315 315 315 316 316 316 318 319 319 319 320
314 310 311 317 317 318 319 316 318 320 314 313 320 323 321 321 323 322 320 319 318 319 319 317 317 320 320 317 317 317 318 318 317 316 316 316 318 317 317 317 316 317 318 319 319 317 317 316 315 316 315 316 316 315 315 315 315 314 315 315 314 315 315 314 314 314 314 314 314 314 314 314 315 315 315 315 315 315 316 316 316 318 318 318 319 320
313 311 314 319 318 320 319 316 318 319 315 316 323 326 322 323 326 324 322 321 319 319 318 317 317 318 319 319 319 320 319 319 319 319 318 316 317 318 317 317 315 316 317 317 318 317 317 316 315 315 315 316 316 316 315 315 315 315 315 315 315 315 315 315 314 314 314 315 314 315 315 315 315 315 315 315 316 316 316 316 316 317 317 318 318 318
314 315 317 319 318 319 318 319 322 319 316 321 325 324 323 324 326 324 323 320 318 319 319 319 318 318 320 320 319 320 318 318 318 319 318 316 316 316 315 316 316 316 316 315 316 316 316 316 316 315 315 315 315 315 315 315 314 315 315 315 314 315 315 315 315 315 314 314 315 315 315 315 315 315 315 315 316 316 316 316 316 316 316 317 317 317
315 314 315 318 318 318 319 322 326 322 318 320 321 323 323 325 325 322 322 321 318 319 321 322 319 317 320 320 318 319 318 319 319 317 317 315 315 316 315 316 316 316 316 316 315 315 315 315 315 315 315 315 315 315 315 315 314 314 314 314 314 314 314 315 315 314 314 315 315 315 315 315 315 315 316 316 316 316 316 316 316 316 316 316 316 315
312 311 313 317 316 316 317 316 319 322 318 318 321 323 322 321 321 320 321 319 318 320 321 322 320 317 319 321 318 319 319 320 319 317 319 318 316 316 316 316 316 315 315 314 314 313 314 314 314 314 314 314 314 314 314 314 314 313 313 313 313 313 313 314 314 314 315 314 315 315 315 315 315 315 316 316 316 316 316 316 316 316 315 315 315 315
312 312 314 314 311 312 316 315 316 317 316 320 323 322 319 319 318 318 318 317 319 322 319 319 321 319 318 319 317 318 318 318 317 317 321 320 317 316 316 316 315 314 314 313 313 312 312 313 313 313 313 313 313 314 314 314 314 313 313 313 312 312 312 312 313 314 315 315 315 315 315 315 315 316 316 316 316 316 316 316 316 316 315 315 315 315
316 315 315 314 311 312 318 317 316 315 317 321 321 319 319 320 318 318 319 319 319 319 315 314 318 320 319 317 316 317 316 316 316 315 318 318 316 316 316 315 315 314 314 313 313 313 313 312 313 312 312 313 313 313 314 314 314 313 314 314 313 312 312 312 313 314 314 314 315 315 315 315 316 316 316 316 316 316 316 316 315 315 315 315 315 315
319 317 315 316 313 313 317 316 315 315 316 319 319 318 321 320 317 317 319 319 319 317 315 314 316 319 318 316 316 317 314 315 315 313 316 316 315 316 315 314 315 314 314 315 314 314 313 313 313 312 312 312 312 313 313 313 314 314 313 313 313 312 312 311 312 314 314 314 314 315 315 316 316 316 316 316 316 316 315 315 315 315 315 315 315 315
319 318 315 317 315 314 317 317 318 318 316 319 321 319 320 320 319 318 319 322 323 318 314 313 317 320 320 318 318 315 313 314 314 313 315 314 314 314 314 314 314 314 314 315 314 313 313 313 312 312 312 312 312 312 313 313 313 313 313 312 312 312 311 311 313 314 314 314 314 315 316 316 316 316 316 316 315 315 315 315 315 315 315 315 315 315
317 318 316 315 314 314 317 318 318 317 315 319 322 321 319 321 324 321 318 321 323 320 316 315 319 322 320 319 317 314 315 315 313 313 313 313 313 312 312 313 313 313 313 314 315 314 313 313 312 312 311 311 312 312 313 313 313 313 312 312 311 311 312 312 313 314 314 314 315 316 316 316 316 316 316 315 315 315 315 315 315 315 315 315 315 315
316 318 316 314 313 314 314 315 317 316 316 318 319 319 318 320 325 322 316 315 316 318 320 318 319 319 316 317 317 316 318 317 314 314 312 312 313 312 312 313 312 312 313 313 315 314 314 314 312 312 312 311 312 312 313 313 313 313 312 312 311 311 312 312 313 314 314 315 316 316 316 316 316 315 315 315 315 315 315 315 315 315 315 315 315 315
317 317 315 315 316 313 309 312 314 313 315 318 319 318 317 318 322 320 315 316 315 315 318 318 318 316 314 318 321 316 316 318 318 316 312 311 312 312 312 313 312 312 313 314 315 315 315 315 313 313 312 312 313 313 313 313 313 313 313 312 312 312 313 313 314 315 315 316 316 316 316 316 316 315 315 315 315 315 315 315 315 315 315 315 315 315
320 320 316 314 316 313 310 314 315 312 313 316 316 317 317 318 320 317 314 318 319 315 316 319 318 317 316 317 318 316 317 319 319 318 317 313 312 312 313 313 313 313 314 314 315 315 316 315 314 313 313 313 314 313 314 314 313 314 314 313 314 314 314 314 315 316 316 316 316 316 316 316 315 315 315 315 315 315 315 315 315 315 315 315 315 315
321 323 319 314 314 315 314 315 316 315 314 314 314 314 317 318 319 319 316 317 320 317 316 318 318 320 322 318 316 317 318 318 316 319 320 315 312 313 313 313 313 314 314 314 315 316 316 315 314 314 314 314 314 314 314 315 314 315 315 315 314 315 315 315 316 316 316 316 316 316 316 315 315 315 315 315 315 315 315 315 315 315 315 315 315 315
318 322 321 315 313 315 316 315 316 316 314 314 315 314 315 315 316 319 318 318 319 317 317 316 316 321 325 319 316 315 315 319 319 322 322 315 312 314 313 313 313 314 314 315 316 316 316 315 315 315 315 315 315 315 315 315 316 315 316 316 316 316 316 316 316 316 316 316 316 315 315 315 315 315 315 315 315 315 315 315 315 315 315 315 315 315
317 319 319 315 314 315 316 316 316 316 316 315 315 314 314 315 315 317 318 319 317 316 318 316 316 323 323 316 316 316 318 322 319 319 319 315 314 315 314 313 314 314 314 315 316 316 316 316 316 316 316 316 316 316 316 316 316 316 316 316 316 316 316 316 316 316 316 316 315 315 315 315 315 315 315 315 315 315 315 315 315 314 315 315 315 315
319 319 317 315 315 315 315 313 310 313 318 318 315 316 315 314 315 317 318 319 317 315 316 314 316 323 323 320 321 319 318 316 313 312 313 312 313 314 314 315 315 314 315 315 316 316 316 316 316 316 316 316 316 316 316 317 316 316 316 316 316 316 316 316 316 316 316 315 315 315 315 315 315 315 315 315 315 315 314 314 314 314 314 315 314 314
318 320 318 316 315 315 315 314 311 313 318 317 316 318 317 314 315 317 318 320 319 317 315 314 315 318 323 326 319 312 311 311 310 310 310 310 312 312 313 315 316 315 315 316 316 316 316 316 316 316 316 316 316 316 316 316 316 316 316 316 316 316 316 316 316 316 316 315 315 315 315 315 315 315 315 315 315 314 314 314 314 314 314 314 314 314
316 319 318 317 318 317 317 316 315 316 316 317 317 316 316 317 317 316 317 317 318 321 320 317 317 317 321 324 316 311 314 313 309 309 309 310 311 311 311 313 314 316 316 316 316 316 316 316 316 316 316 316 316 316 316 316 316 316 316 316 316 316 316 316 316 316 316 315 315 315 315 315 315 315 315 314 314 314 314 314 314 314 314 314 313 312
316 318 317 318 318 317 318 317 316 316 315 316 319 317 317 320 318 315 317 316 318 322 321 318 317 316 316 317 314 316 319 316 311 310 310 310 310 310 310 311 312 314 316 316 316 316 316 316 316 316 316 316 316 316 316 316 316 316 316 316 316 316 316 316 316 316 315 315 315 315 315 315 315 315 314 314 314 314 314 314 314 314 313 313 312 311
316 317 315 315 315 315 315 315 317 318 316 316 318 318 317 318 318 316 317 317 317 319 320 320 318 315 314 314 315 317 319 318 315 312 310 311 311 310 310 311 311 312 313 315 315 316 316 315 316 316 316 316 316 316 316 316 316 316 316 316 316 316 316 316 316 316 315 315 315 315 315 315 315 314 314 314 314 314 314 314 314 313 313 312 312 311
318 317 315 316 315 314 314 316 319 319 316 315 316 316 316 317 318 318 317 317 317 317 317 319 318 316 315 314 315 318 319 318 315 311 311 312 312 311 310 311 312 311 312 313 314 315 316 315 316 316 316 316 316 316 316 316 316 315 315 316 316 316 316 316 316 316 315 315 315 315 315 315 315 314 314 314 314 314 314 314 313 313 312 312 311 311
317 316 316 317 316 316 316 319 322 319 316 316 316 316 317 316 317 318 317 316 317 317 316 316 317 317 314 313 315 317 316 315 313 312 313 313 313 313 312 311 312 312 311 312 313 314 315 315 316 315 316 316 316 316 316 315 315 315 315 315 316 316 316 316 315 315 315 315 315 315 315 314 314 314 314 314 314 314 314 313 313 312 312 311 311 310
315 315 315 316 316 316 317 320 322 320 317 318 316 315 316 316 316 316 316 315 316 317 316 315 316 316 314 314 315 314 314 313 312 313 314 314 313 314 313 312 311 311 311 311 312 312 313 314 315 315 315 315 316 316 316 316 316 315 315 315 315 316 316 315 315 315 315 315 315 315 315 314 314 314 314 314 314 314 313 313 312 312 311 311 310 309
313 316 317 316 316 316 318 321 323 321 319 319 318 317 316 315 316 315 315 315 315 315 315 315 316 315 314 314 314 314 314 313 312 313 314 313 313 313 313 312 312 312 312 312 312 312 312 312 314 315 315 315 315 316 316 316 315 315 315 315 315 316 315 315 315 315 315 315 315 315 314 314 314 314 314 314 313 313 313 312 312 311 311 310 308 307
315 317 318 317 317 317 318 322 322 320 318 318 319 320 317 316 316 315 314 315 314 315 316 315 316 315 313 313 314 314 314 312 311 313 313 313 313 312 312 312 312 312 312 312 313 314 313 312 313 314 314 315 315 316 315 315 315 315 315 315 315 315 315 315 314 315 315 315 314 314 314 314 314 314 314 313 313 312 312 312 311 310 309 308 307 305
314 316 318 318 317 316 318 321 320 317 316 316 318 319 318 316 316 315 315 315 314 315 316 315 315 314 313 314 315 315 316 314 312 312 313 313 312 312 312 312 312 312 312 312 313 314 314 314 313 313 313 314 315 315 315 315 315 315 315 315 315 315 314 315 314 314 314 314 314 314 314 314 314 313 313 313 312 312 312 312 311 309 308 306 305 302
313 314 318 317 315 316 317 318 318 316 315 314 315 316 317 317 316 316 315 315 315 315 314 314 314 313 313 316 316 316 316 315 313 313 314 314 313 313 312 312 313 312 312 312 312 313 314 314 314 314 313 313 314 314 315 315 315 315 315 315 315 314 314 314 314 314 314 314 313 313 313 314 313 313 313 312 312 312 311 311 309 308 306 304 302 299
314 314 315 314 315 317 317 316 315 315 314 313 313 316 317 316 316 317 316 315 314 314 314 314 314 313 313 315 315 314 314 314 313 314 314 313 313 313 313 313 313 312 312 312 312 312 312 312 313 314 314 314 313 313 314 314 314 314 314 314 314 314 314 314 314 314 313 313 313 313 313 313 313 312 312 311 311 311 311 309 308 306 304 301 298 296
314 314 314 315 317 318 316 314 315 315 315 315 316 316 316 315 316 317 317 315 314 314 315 314 314 313 313 312 313 314 314 314 313 313 313 313 313 312 313 312 312 312 312 312 311 311 311 312 312 312 313 313 313 313 313 313 314 314 314 314 314 314 313 313 313 313 313 313 313 313 313 312 312 312 311 311 311 310 309 308 306 304 301 298 296 295
313 313 314 315 316 317 315 314 314 314 316 316 315 314 314 314 316 316 316 315 314 314 315 314 314 314 313 312 313 313 313 313 313 313 312 312 312 312 313 312 312 312 312 311 311 311 311 311 312 312 312 312 312 313 313 313 313 313 313 313 313 313 313 313 312 312 312 312 313 313 312 311 311 311 310 310 310 309 307 306 303 301 298 296 294 294
314 314 314 314 315 316 316 314 314 314 314 313 313 314 313 312 314 315 315 315 314 313 313 314 314 314 313 313 313 311 311 313 315 313 312 312 312 312 312 312 312 312 312 311 311 311 311 311 311 311 311 310 311 311 312 312 312 312 313 313 313 312 312 312 312 312 312 312 312 312 311 311 310 310 310 309 308 307 305 303 301 298 296 294 293 293
315 314 314 313 315 316 315 314 314 314 313 312 314 316 315 312 312 314 315 315 313 311 311 313 314 313 313 312 311 311 313 316 315 312 311 312 312 312 312 312 312 311 312 311 311 311 311 311 310 310 310 310 310 310 310 311 312 312 312 312 312 312 312 312 312 312 312 312 311 311 310 310 309 309 309 308 307 305 303 301 298 296 294 293 293 293
313 314 315 313 314 316 314 313 313 312 313 317 319 317 313 312 312 314 316 315 312 310 311 312 312 312 312 312 311 312 315 316 313 312 312 312 312 312 312 312 312 312 311 311 311 311 310 310 310 310 310 310 310 310 309 310 311 311 311 311 311 311 311 311 312 311 311 311 310 309 309 309 308 308 307 306 304 302 300 298 296 294 293 293 292 292
311 313 314 313 313 314 314 314 313 313 316 321 318 312 310 312 314 314 315 313 310 310 312 311 311 312 312 312 311 312 314 313 312 312 312 312 312 312 311 311 311 311 311 311 311 311 310 311 310 310 310 310 310 310 309 309 309 310 311 311 310 310 310 310 310 310 310 309 309 308 308 308 307 306 305 303 301 299 297 296 294 293 292 292 292 292
312 312 313 313 313 313 313 313 313 314 317 318 314 310 311 314 314 313 312 311 311 312 312 311 311 311 312 312 312 312 312 312 312 312 311 311 312 311 311 311 311 311 311 310 311 311 310 311 310 310 310 310 310 310 309 308 308 309 309 310 309 309 309 309 309 309 308 308 308 307 307 306 305 304 302 301 299 297 295 294 293 292 292 292 292 292
311 311 312 312 312 313 313 313 313 313 313 313 312 311 313 313 313 312 311 311 312 312 311 312 312 311 312 313 312 312 312 312 311 311 311 311 311 311 311 311 310 310 310 310 310 310 310 310 310 310 310 310 310 310 309 308 307 307 308 308 309 309 308 308 308 307 307 307 307 306 305 304 303 301 299 298 296 295 293 292 292 292 292 291 291 291
311 311 312 312 311 312 312 313 313 313 312 311 312 313 312 311 311 311 311 311 312 312 312 312 312 311 312 312 312 312 312 312 311 311 311 311 311 311 311 311 311 311 311 311 311 310 310 310 310 309 310 310 309 309 309 308 307 307 307 307 307 308 307 307 307 306 306 306 305 304 303 302 301 299 297 296 294 293 292 291 291 291 291 291 291 291
311 310 311 312 311 312 314 315 313 312 310 310 311 312 311 311 311 311 312 312 312 312 312 311 312 312 311 311 312 312 312 312 312 311 311 311 310 310 311 311 311 312 311 311 311 310 310 310 309 309 309 309 309 308 308 307 306 306 306 306 306 306 306 305 305 305 305 304 303 303 302 300 298 297 295 294 292 291 291 291 291 290 290 290 290 290
313 310 310 313 313 312 314 314 312 311 309 309 310 311 311 311 311 311 311 311 311 312 312 311 311 311 311 311 311 311 311 311 311 311 311 311 310 311 311 311 311 311 311 311 310 310 310 309 309 309 309 308 308 308 307 307 306 306 305 305 305 304 304 304 304 304 304 303 302 301 299 298 296 295 293 292 291 290 290 290 290 290 290 290 291 292
313 310 311 315 315 313 313 313 312 311 310 310 310 311 311 311 311 311 310 311 311 311 311 311 311 311 311 311 311 311 311 311 311 311 311 311 311 311 311 311 311 311 311 311 310 309 309 309 309 309 308 308 308 307 307 306 306 305 304 304 303 303 303 303 303 303 302 301 300 299 297 296 294 293 291 290 290 290 290 290 291 291 292 292 292 293
313 310 313 316 314 312 313 314 311 309 309 310 310 310 310 310 311 311 310 310 310 310 311 311 311 311 311 311 311 311 311 311 311 311 311 311 311 311 311 311 311 311 311 311 310 310 309 309 308 308 308 308 307 306 306 305 305 304 303 303 302 302 302 302 302 301 301 300 298 297 295 294 292 291 290 290 290 291 292 292 292 292 293 293 293 293
311 311 315 316 315 313 313 313 310 309 310 311 310 310 310 310 311 311 311 310 310 310 310 310 310 311 311 310 310 310 310 311 311 311 311 311 311 311 311 311 311 311 311 311 311 310 309 308 308 308 307 307 306 306 305 304 304 303 302 302 301 301 301 301 301 300 299 298 296 295 293 291 290 289 290 291 292 292 292 292 292 293 293 293 293 293
310 313 315 315 314 313 313 312 311 312 314 313 310 310 310 310 310 310 310 310 309 309 309 309 309 309 309 309 309 309 310 310 311 311 311 311 311 311 311 311 311 311 311 311 310 309 309 308 308 307 307 306 305 304 304 303 303 302 301 301 300 300 300 300 299 298 296 295 293 292 290 289 290 291 292 293 293 292 292 292 293 293 293 293 292 292
310 313 314 313 313 313 312 311 310 312 313 312 309 309 309 309 310 310 310 310 310 309 309 309 308 308 308 308 309 309 310 311 311 311 311 311 311 311 311 311 311 310 309 309 308 308 308 307 307 306 306 305 304 303 303 302 302 301 301 300 300 299 299 298 297 296 294 292 290 289 290 291 293 294 293 293 292 292 293 293 293 293 292 291 291 289
Wind_Speed
12 5 4 6 5 8 9 8 9 6 2 3 7 8 7 5 2 1 3 1 3 3 5 7 6 8 9 7 9 17 19 16 17 18 18 18 18 19 19 19 20 21 22 21 21 23 24 24 25 25 25 26 26 27 27 27 26 26 26 25 24 24 23 23 23 23 23 23 22 21 21 21 21 21 20 20 21 21 21 20 20 21 21 20 19 18
11 6 5 9 8 7 9 10 10 6 3 4 3 6 6 4 2 2 3 2 2 1 4 8 8 9 9 8 9 15 15 14 18 18 19 21 20 20 20 20 21 22 22 21 21 23 24 25 26 26 27 27 28 29 29 29 28 27 27 26 25 25 25 25 25 25 25 24 23 21 21 20 19 20 20 19 19 20 21 21 20 20 21 22 23 21
7 6 5 10 9 3 3 10 10 6 2 3 1 3 3 2 3 3 3 2 2 1 2 2 5 9 9 8 8 11 13 16 23 23 22 24 22 22 22 22 22 22 22 23 23 25 25 25 24 25 27 29 29 30 30 30 29 29 28 27 27 27 27 26 26 26 25 25 23 21 20 19 19 19 20 19 18 18 19 20 19 19 20 23 25 23
4 5 7 9 9 3 1 5 8 4 3 2 1 1 2 4 4 1 1 2 1 1 1 4 2 6 6 6 7 13 19 18 21 25 25 25 25 25 24 23 23 23 23 24 25 26 26 26 25 25 27 29 30 31 31 31 31 31 30 29 29 29 29 28 27 26 26 25 23 22 21 21 21 20 20 19 19 19 20 21 20 19 19 19 21 22
6 5 6 7 8 7 2 2 5 4 3 3 4 2 2 4 5 2 3 3 3 2 1 3 5 5 6 8 7 13 20 19 20 23 24 26 27 25 23 23 23 23 24 24 25 26 27 27 27 26 26 28 30 32 33 33 32 32 32 31 31 31 31 29 28 27 26 26 25 24 23 23 22 21 20 19 19 19 20 22 21 19 18 17 18 20
6 4 5 7 8 9 7 4 5 6 3 3 5 4 0 2 6 7 5 5 3 2 2 2 1 5 5 10 10 9 11 14 18 20 22 26 27 25 26 26 24 23 23 24 25 26 26 27 27 26 26 27 29 30 32 32 33 33 33 33 32 32 32 31 29 28 27 27 26 24 24 23 22 21 20 19 17 17 18 19 20 20 18 18 18 18
2 1 3 6 9 8 7 5 5 6 4 3 5 4 3 5 8 9 6 4 3 2 2 3 4 5 3 5 8 8 8 10 12 12 16 22 24 25 29 30 29 27 26 25 25 25 26 27 27 28 28 28 28 28 29 30 32 32 33 33 33 33 33 32 31 29 28 27 25 24 23 22 22 21 20 18 17 17 17 18 19 20 19 19 19 18
3 3 2 4 6 6 6 4 5 7 5 3 3 1 5 7 7 8 6 4 2 2 2 1 2 2 4 5 4 5 7 6 7 6 11 18 22 26 29 32 33 33 32 31 29 28 28 29 29 29 29 29 29 29 30 32 32 32 33 33 33 33 33 33 32 30 29 27 25 24 23 22 22 21 20 18 18 17 17 17 17 18 19 19 19 18
3 5 6 8 6 4 5 3 5 9 4 3 2 2 3 5 6 7 6 3 1 3 1 4 2 1 4 5 2 4 5 5 7 8 10 17 25 26 28 29 29 29 31 32 32 32 31 31 31 31 30 30 30 31 32 33 34 35 35 35 36 35 35 34 32 31 30 28 25 24 23 23 22 21 20 19 18 17 16 15 15 15 15 16 17 17
0 5 7 9 7 5 5 1 1 7 4 4 4 4 5 4 4 4 4 4 3 1 4 6 5 2 5 5 4 3 4 6 7 8 10 17 25 26 25 25 23 23 25 27 29 30 31 32 32 32 32 32 32 32 33 34 35 37 38 38 38 37 37 35 32 31 31 29 26 25 24 23 22 20 19 18 17 16 14 13 13 12 12 13 13 14
1 2 1 3 3 3 6 3 4 2 6 7 5 5 6 4 4 3 2 4 2 2 4 5 6 5 3 5 5 4 5 7 7 7 5 8 15 19 20 20 19 20 21 23 24 25 27 29 29 30 31 31 31 32 33 34 36 36 37 38 38 38 38 36 33 32 31 30 27 26 24 23 21 19 17 16 15 13 12 11 10 10 10 11 11 12
2 3 1 2 2 4 6 4 6 4 6 6 4 5 4 3 4 3 2 3 2 3 3 3 1 2 4 5 3 2 3 5 5 5 3 5 9 12 14 15 16 16 17 18 19 20 23 25 26 27 28 28 28 28 30 32 32 32 33 34 36 37 38 37 34 33 32 30 27 25 24 22 20 17 16 15 13 11 9 9 8 8 8 9 10 11
3 2 1 2 0 3 4 4 4 4 2 2 4 6 4 1 2 0 1 2 3 3 3 2 3 1 5 6 7 8 6 5 5 5 6 9 10 10 10 11 12 12 13 15 17 19 21 23 24 25 26 26 25 25 26 27 27 27 28 29 32 34 36 35 34 33 32 30 26 24 23 20 18 16 15 13 11 9 8 7 6 6 7 8 9 10
2 1 2 3 1 4 3 4 4 0 2 3 5 6 5 4 2 2 3 2 3 2 3 3 1 2 4 5 10 14 13 10 7 6 7 10 11 9 9 9 9 9 10 12 15 18 20 22 23 24 26 26 23 22 23 24 24 24 25 27 28 30 31 31 32 32 31 27 25 24 21 19 17 15 13 11 10 9 6 5 5 5 7 8 10 12
5 2 3 3 2 5 4 2 4 5 4 4 4 5 5 5 3 4 4 3 4 1 3 3 1 3 3 3 7 9 8 7 5 6 8 9 9 9 9 9 9 9 10 10 12 14 17 19 20 23 25 25 23 22 21 22 23 23 24 24 25 27 28 29 30 30 27 25 24 22 20 19 17 15 13 12 10 7 5 4 4 6 8 10 11 13
7 3 1 1 1 4 4 2 1 6 5 3 2 4 3 4 4 3 2 3 4 2 0 2 2 4 4 5 8 5 4 5 7 9 10 12 12 12 12 12 12 12 11 11 12 13 15 16 17 19 21 22 22 21 20 21 22 22 22 22 23 24 24 25 27 26 25 23 23 22 20 19 18 16 14 12 8 6 5 5 6 8 9 11 12 14
7 2 2 2 2 1 1 1 1 3 3 2 2 3 3 3 6 4 0 0 3 0 2 3 3 5 3 6 10 9 7 6 7 9 11 14 14 14 16 16 15 15 14 13 12 12 13 14 14 16 17 19 19 20 20 20 20 19 19 20 21 22 23 24 25 24 23 23 22 22 21 20 19 17 14 10 8 7 6 7 9 10 11 12 13 15
6 2 3 1 1 2 1 1 3 3 2 4 3 4 3 2 3 3 1 1 2 2 2 4 5 4 2 4 5 4 7 6 6 7 10 12 13 15 17 16 15 15 15 14 12 11 11 11 13 14 16 18 18 19 19 19 18 18 18 19 19 21 22 23 24 23 23 23 23 23 22 21 19 16 13 11 9 8 9 10 12 11 12 13 15 17
6 4 2 3 1 1 2 1 3 3 3 3 3 2 3 1 1 1 2 2 2 3 3 3 6 4 4 4 3 2 7 8 7 8 7 9 13 16 15 13 12 13 15 14 11 11 11 12 13 14 16 17 18 18 18 18 19 19 19 20 20 21 21 22 23 24 24 24 24 23 22 21 18 15 13 12 10 10 11 12 12 12 13 14 16 18
4 4 1 3 2 1 1 1 5 2 2 2 2 2 2 2 3 3 3 3 3 3 4 3 3 4 5 6 5 7 8 8 7 7 7 9 13 15 14 12 12 14 16 14 11 12 12 13 14 15 16 16 17 18 18 19 20 20 21 21 21 22 22 23 24 25 25 25 24 24 22 19 17 15 13 12 12 13 13 13 13 13 14 15 17 20
3 3 4 0 2 1 1 2 5 6 4 2 2 4 2 1 2 1 2 2 3 3 3 3 3 5 5 5 8 10 9 7 6 4 5 7 9 11 13 13 14 15 15 13 12 13 14 14 15 15 16 17 18 19 19 20 20 21 22 22 22 23 24 25 26 26 26 25 24 23 20 18 16 15 14 13 14 15 14 14 14 14 15 17 18 22
1 3 5 3 2 2 1 1 1 2 5 5 5 7 7 5 4 2 3 3 3 3 3 3 4 6 5 2 4 7 6 5 5 4 4 4 4 7 10 12 15 15 14 14 14 15 15 16 16 16 17 18 19 19 20 21 22 22 23 22 23 24 25 27 27 26 26 25 23 21 19 17 16 15 15 15 16 16 15 14 14 15 16 18 20 23
3 5 5 3 2 2 2 2 1 2 1 1 3 5 6 6 5 5 5 4 3 2 1 2 3 6 5 2 1 3 3 4 3 3 4 4 5 6 8 10 13 14 13 14 15 16 16 16 16 17 18 19 19 20 21 22 22 22 23 23 24 26 27 27 27 26 26 24 22 20 18 17 16 16 16 17 17 16 15 15 15 16 18 20 21 22
4 5 4 3 2 1 2 2 1 2 1 1 4 4 5 7 6 5 4 4 4 3 3 2 4 6 6 3 0 1 1 1 4 5 6 7 7 7 8 10 12 13 14 14 15 17 17 17 17 18 19 20 20 21 21 22 23 23 24 24 26 27 28 28 27 26 25 24 22 20 18 18 17 18 18 18 17 16 16 16 16 18 19 20 20 19
5 3 4 5 2 2 2 2 2 4 4 3 3 3 3 4 6 4 1 2 2 4 6 5 5 7 5 2 2 3 4 5 8 9 9 10 10 9 9 10 12 14 15 15 17 18 18 18 18 19 19 20 21 21 22 23 23 23 24 25 27 29 29 29 27 26 25 23 22 20 19 19 19 19 19 18 17 17 17 17 18 18 19 18 18 17
7 4 5 6 6 6 6 7 6 4 4 1 0 5 6 6 9 6 2 3 2 5 6 5 6 9 5 2 2 4 4 5 10 11 10 11 11 11 10 10 13 15 16 17 18 19 19 19 19 20 20 21 21 22 22 23 24 24 25 27 29 30 30 28 27 26 25 24 23 21 20 20 20 20 19 18 18 18 18 18 18 18 17 17 17 16
4 3 8 9 10 12 11 7 5 8 7 6 8 10 11 10 10 8 4 4 5 4 4 5 8 12 11 3 3 5 6 7 8 9 12 14 13 12 11 11 12 15 17 18 18 19 20 21 22 22 22 22 23 23 24 25 26 26 28 29 31 30 29 28 27 27 26 25 24 22 21 21 21 20 20 19 19 19 19 18 17 17 17 17 17 17
3 4 10 12 13 12 6 4 9 11 10 13 13 11 10 10 9 8 7 8 6 3 5 9 9 14 16 9 7 8 8 7 7 10 15 16 13 11 12 12 12 13 15 18 19 21 22 24 24 24 25 25 25 26 26 27 27 28 29 30 31 31 31 30 30 29 28 27 25 24 22 21 21 21 21 20 20 19 18 17 17 17 18 18 18 17
3 7 9 9 12 10 3 4 9 11 10 11 13 13 12 12 11 11 12 12 9 7 10 13 14 17 18 11 8 9 9 9 12 14 14 12 11 11 12 13 13 13 15 17 19 21 23 25 27 27 28 28 28 28 28 28 28 29 31 32 32 33 33 32 32 30 29 28 26 25 23 22 22 22 22 21 20 19 18 17 17 18 19 19 18 16
2 5 5 6 8 9 5 5 8 10 8 9 12 14 14 14 14 16 16 17 17 15 15 17 17 18 17 12 9 11 14 16 16 12 11 11 12 12 11 12 12 11 14 17 19 21 23 25 28 29 30 30 29 29 29 29 30 31 32 33 33 34 35 34 33 31 30 29 27 25 24 22 23 23 22 22 21 19 18 17 18 19 19 18 16 15
1 3 2 5 5 5 4 6 7 8 8 8 10 11 13 14 15 17 17 17 16 15 17 17 14 16 17 12 9 11 16 16 11 11 15 17 16 14 11 10 10 11 15 18 19 21 23 25 28 30 31 31 30 30 30 30 31 31 32 34 35 36 36 35 33 32 32 31 28 26 25 24 24 24 23 22 21 19 18 18 20 20 18 17 15 14
2 2 1 5 4 4 6 8 6 5 4 3 7 10 14 15 15 16 16 14 13 13 15 13 11 16 15 8 8 13 12 12 11 15 18 18 17 16 13 11 10 13 18 20 20 20 22 24 27 29 30 31 31 32 32 32 32 33 34 35 36 37 37 36 35 34 33 31 29 27 25 25 25 24 23 22 21 19 19 20 20 19 17 16 15 14
5 5 3 5 5 5 6 10 8 7 4 4 8 13 17 17 16 15 13 13 13 12 11 10 14 17 10 3 7 11 6 9 14 18 19 20 20 18 14 11 13 18 22 21 19 19 19 20 22 24 27 29 32 34 34 33 34 34 35 36 37 38 37 37 36 35 33 31 29 28 26 25 25 24 24 23 21 20 21 20 20 18 16 16 15 14
6 6 4 5 5 4 4 8 8 5 7 11 11 13 16 17 16 14 13 15 16 13 11 12 15 14 6 4 8 10 8 11 17 21 24 25 23 17 13 13 17 22 23 21 20 19 19 19 20 21 24 28 32 35 35 35 35 35 36 37 38 38 38 37 36 34 32 30 28 27 26 26 25 25 24 23 22 22 21 20 19 18 17 17 16 15
7 5 4 4 3 1 3 7 6 8 12 10 5 8 13 16 15 15 16 19 18 16 15 16 16 14 10 10 13 13 15 17 18 22 24 23 19 15 13 16 18 21 22 22 23 24 24 23 24 24 25 27 30 34 35 36 37 37 38 39 39 39 38 36 34 32 31 29 27 26 26 26 26 26 24 23 23 22 21 20 19 18 17 16 15 15
8 6 4 3 3 3 3 5 7 7 6 2 3 8 11 11 11 12 14 16 15 13 12 15 19 19 18 19 15 11 13 14 15 19 21 18 17 16 15 17 19 21 24 24 25 28 28 28 27 26 26 26 28 31 34 34 35 38 40 40 39 38 36 34 32 31 29 28 27 27 28 27 27 26 24 23 22 21 20 19 18 18 17 16 16 15
8 8 4 3 4 4 3 5 5 4 6 2 7 8 9 9 10 10 10 13 12 12 14 16 20 21 19 18 15 10 8 7 8 14 19 18 16 17 19 23 27 28 29 28 28 30 30 28 26 24 23 23 24 26 29 29 31 34 39 40 38 36 35 33 31 30 29 29 29 29 29 28 26 25 23 22 22 21 20 19 18 18 17 17 16 16
5 7 6 5 4 4 5 3 2 2 7 11 7 5 9 12 11 9 7 10 11 16 21 18 17 19 16 10 8 7 5 2 6 14 18 17 17 21 26 31 33 32 31 31 31 31 31 28 26 23 21 20 20 21 22 23 25 29 35 38 37 35 34 33 32 31 30 30 30 30 29 27 25 24 22 22 21 20 19 19 19 18 17 17 17 16
2 4 7 6 4 4 6 5 5 6 11 11 5 5 11 18 14 11 6 11 14 17 22 18 16 19 14 9 11 10 6 2 8 16 18 16 19 28 33 33 33 32 32 32 32 31 30 29 27 24 22 21 20 19 19 19 21 25 30 34 36 36 35 34 33 32 32 32 31 30 27 26 24 23 22 21 20 20 19 19 19 18 18 18 17 16
1 1 5 7 6 6 6 5 5 5 9 7 7 8 16 25 20 12 5 14 10 13 22 22 20 19 14 14 15 10 6 9 15 19 18 14 17 24 25 26 29 30 31 32 31 31 30 28 27 26 25 24 23 22 21 20 20 23 27 31 34 35 36 36 36 35 34 33 30 27 25 24 23 22 21 21 20 20 19 19 18 18 18 18 17 16
2 1 3 6 8 7 7 7 5 4 6 6 8 14 24 26 15 8 10 9 6 18 26 29 24 20 18 20 19 14 17 27 28 22 13 7 9 13 15 17 19 20 22 25 26 26 26 25 25 25 24 24 24 23 22 21 22 23 26 29 32 34 35 36 36 35 33 30 27 25 24 24 23 22 21 20 20 19 19 18 18 18 18 17 16 15
4 3 3 5 6 6 5 4 3 6 8 7 10 20 26 18 6 8 6 2 8 14 20 24 24 22 21 24 25 26 31 35 30 22 14 9 11 13 14 14 14 14 16 18 18 19 19 19 20 20 20 21 22 22 22 22 22 24 26 28 31 32 34 34 33 31 28 26 25 24 24 23 22 21 21 20 20 19 18 18 18 18 17 17 16 15
7 6 5 5 6 5 4 6 6 9 6 14 16 11 12 9 5 7 7 4 6 9 12 15 18 20 20 25 29 31 32 31 26 22 19 16 16 18 19 19 17 16 16 16 17 18 19 18 19 19 19 20 21 21 22 21 21 23 25 28 30 30 31 31 29 27 25 24 24 23 23 22 21 21 20 20 19 19 18 18 18 17 17 16 14 13
7 7 6 6 6 6 6 8 7 5 8 25 21 8 10 12 6 8 11 8 6 8 10 11 12 14 17 22 25 27 30 29 25 23 20 18 18 19 18 18 17 15 16 17 18 19 20 20 20 20 20 20 20 20 20 20 21 22 24 26 27 28 28 27 25 24 24 23 23 23 22 22 21 21 20 19 18 18 18 18 17 16 15 13 11 9
10 10 7 5 6 7 6 8 8 7 14 26 21 11 15 22 15 7 8 9 8 10 11 11 12 13 14 17 20 22 25 25 24 23 21 19 17 16 15 15 15 16 18 19 20 20 20 20 20 19 18 18 18 18 19 19 20 21 23 24 25 25 25 24 23 23 23 23 23 22 22 21 21 20 19 18 18 17 16 16 14 13 11 9 7 6
8 11 9 5 5 6 6 8 10 10 12 16 14 7 9 19 23 18 13 10 11 12 12 14 15 14 14 16 18 20 22 20 18 17 16 16 15 14 15 15 16 18 19 20 20 19 18 18 18 17 17 16 16 17 17 18 19 20 21 22 22 22 22 22 23 23 23 23 23 22 22 21 20 19 18 18 17 16 14 13 11 9 7 6 5 6
4 9 8 4 5 6 7 10 10 10 9 10 11 9 6 10 19 23 21 17 16 16 15 16 16 14 14 17 17 17 17 15 13 12 13 14 15 15 16 17 17 18 18 17 17 16 15 15 15 15 15 16 16 16 16 17 18 18 18 19 19 20 21 22 22 23 23 23 22 21 21 20 19 19 18 17 15 14 12 10 8 7 6 7 8 9
5 8 7 5 7 7 6 8 11 12 10 9 9 10 8 9 13 17 19 20 21 19 16 15 15 13 13 13 13 13 12 11 11 13 14 15 16 16 15 15 14 14 14 14 14 14 14 14 14 14 15 15 15 15 15 15 15 16 16 17 18 19 21 22 22 22 22 22 22 21 20 20 19 18 17 15 13 11 9 8 7 7 8 9 10 11
6 8 6 5 6 5 5 3 3 3 3 7 11 14 14 14 15 15 17 20 21 21 19 16 15 14 13 12 11 11 11 12 13 14 15 16 16 16 14 14 14 14 14 14 14 14 15 14 14 14 15 15 15 15 14 14 14 15 17 18 19 21 22 22 23 23 22 22 22 21 20 19 18 17 15 13 11 9 8 8 8 9 9 10 10 12
6 6 5 5 6 7 7 4 6 3 3 6 8 10 12 14 16 17 18 19 20 22 22 20 18 17 15 13 13 13 14 15 15 16 18 18 18 17 17 17 16 16 16 16 16 16 16 16 16 16 16 16 16 15 14 14 15 17 18 20 21 22 22 23 23 23 23 22 21 20 19 18 16 14 12 10 9 9 9 9 9 10 10 10 11 13
5 4 5 6 6 5 3 4 7 6 4 1 1 3 3 8 13 17 18 18 18 19 20 21 21 20 19 18 16 16 16 16 16 17 18 19 19 19 18 18 18 18 17 17 17 17 17 17 17 17 16 16 15 15 15 15 17 18 20 21 22 22 23 23 23 22 21 21 19 18 17 14 12 11 10 10 10 10 10 10 10 10 10 11 12 14
Wind_Direction
177 168 191 206 202 195 201 212 228 235 252 228 184 191 214 183 162 78 89 159 169 160 213 219 229 241 239 232 203 191 193 198 201 206 213 214 215 215 215 218 223 229 233 234 235 235 233 230 229 228 226 226 227 227 228 229 230 231 235 235 234 236 237 236 236 238 239 239 238 238 238 239 242 247 248 245 244 247 251 253 248 247 251 253 253 251
180 198 203 199 215 206 195 205 226 248 312 321 182 171 204 187 136 30 81 160 185 130 217 221 234 248 241 245 223 185 181 201 200 196 204 208 213 216 217 220 225 232 235 232 231 233 236 234 229 228 227 226 227 227 228 229 230 231 234 236 236 236 238 238 238 240 242 244 245 245 246 246 246 249 253 252 247 246 250 253 252 251 250 252 256 254
186 217 206 197 218 241 200 198 210 240 280 322 336 136 185 182 116 53 51 130 148 128 254 220 224 251 249 247 243 201 191 202 199 198 204 207 211 215 218 222 225 230 233 231 230 231 234 235 231 229 229 229 229 229 230 231 231 231 232 234 236 238 238 239 239 241 242 244 245 246 247 248 248 251 255 256 251 247 252 256 256 253 249 246 248 251
187 208 210 200 199 198 310 192 182 212 259 251 258 148 180 168 141 179 212 140 112 143 29 6 304 268 267 260 254 232 228 220 205 207 212 212 214 216 218 224 228 228 229 230 230 231 233 233 233 233 232 231 230 230 231 231 231 231 231 233 237 240 240 239 239 240 242 243 243 242 243 245 248 249 249 250 248 246 251 259 263 261 256 250 250 253
183 188 197 186 181 181 178 184 169 178 236 238 223 235 219 171 151 125 148 136 24 11 96 10 320 281 238 233 245 232 231 230 218 214 216 217 218 219 220 223 227 229 229 230 230 232 233 233 234 235 234 232 231 231 231 231 232 233 234 237 241 242 242 240 238 238 238 239 238 236 236 240 245 246 246 248 250 248 249 255 262 264 260 256 255 256
190 187 174 172 180 184 175 189 190 174 207 249 219 211 243 128 127 112 128 130 62 312 233 123 294 284 225 212 230 221 215 222 216 211 214 218 218 217 219 221 223 225 226 229 232 235 238 237 236 234 232 231 231 231 233 234 235 236 238 240 241 242 241 240 237 236 236 236 236 236 236 241 246 249 252 254 256 254 251 250 254 257 258 257 257 257
174 148 150 168 173 177 179 200 199 173 178 233 240 209 125 95 114 127 147 145 126 231 275 119 177 267 284 238 240 206 193 214 210 208 215 217 216 217 220 223 223 222 221 222 227 232 236 238 238 234 232 232 233 234 234 235 235 236 238 238 239 240 240 239 237 234 234 234 235 236 238 242 247 250 253 256 257 255 251 247 245 248 255 260 262 265
107 116 131 149 151 161 174 200 195 170 170 211 279 300 132 125 131 145 153 164 167 137 359 343 183 267 294 279 265 153 164 213 215 221 228 223 223 224 227 230 229 228 225 224 226 229 233 237 239 238 236 236 237 237 236 236 236 236 237 237 237 238 238 238 236 234 234 234 233 234 236 238 242 247 249 251 253 251 249 246 245 246 251 258 263 268
111 159 170 153 146 169 178 199 185 165 170 222 245 5 118 134 140 148 147 155 95 72 293 253 190 279 269 250 229 133 159 220 224 222 227 227 227 227 230 233 234 233 231 231 232 232 234 237 241 242 241 239 238 238 238 238 239 238 239 238 237 236 236 236 234 233 233 233 231 232 235 236 239 243 244 246 247 248 248 248 249 251 253 258 264 269
293 178 174 158 161 177 162 50 212 174 179 197 173 71 61 70 94 126 139 126 87 72 236 224 184 206 278 251 210 179 199 222 228 225 223 224 223 223 224 225 227 228 229 231 233 234 236 237 240 242 242 241 240 239 239 239 239 239 238 238 237 236 235 234 232 231 231 231 229 230 234 236 238 240 241 243 243 242 242 244 247 251 255 261 266 270
354 126 110 131 155 151 130 74 11 138 143 140 132 82 65 47 54 62 102 104 96 249 234 220 190 184 271 261 196 186 215 214 220 233 228 207 202 204 208 210 215 220 224 228 230 233 235 236 238 240 241 241 240 239 238 238 238 238 238 238 237 236 235 233 229 227 228 228 228 230 234 236 237 239 238 237 237 235 235 239 245 250 257 264 271 274
59 87 55 65 113 127 116 76 20 45 120 118 118 113 85 36 45 29 11 95 158 242 249 289 310 170 227 253 222 219 231 205 207 221 198 155 162 179 194 205 214 220 226 231 231 232 234 236 237 238 240 240 238 237 236 236 236 236 237 237 235 233 232 230 226 223 224 225 226 229 233 235 235 235 232 229 227 226 229 234 243 252 261 270 274 277
85 90 136 70 271 197 138 100 42 11 14 102 135 132 119 95 85 81 231 173 210 240 252 297 355 260 229 249 262 267 258 219 213 214 176 158 163 179 198 214 223 227 233 237 238 238 236 237 238 238 241 240 238 235 232 231 231 232 234 233 232 231 230 227 223 219 220 222 224 227 230 230 228 226 222 219 216 217 220 226 242 259 272 281 284 288
114 12 170 106 306 232 189 139 137 195 249 182 159 145 148 148 136 194 196 195 221 256 289 282 311 268 267 261 245 248 251 238 224 214 182 165 172 191 211 228 240 244 247 247 246 246 243 241 238 237 239 239 237 232 229 227 227 229 230 230 229 228 227 224 219 216 216 218 221 224 224 221 219 215 208 205 207 209 213 224 248 271 286 299 304 306
170 212 194 157 173 190 191 179 151 147 164 193 168 140 161 170 162 185 180 186 198 204 320 301 257 193 205 249 239 237 244 239 221 212 204 196 197 205 218 233 249 260 269 268 261 256 253 249 242 236 234 234 232 230 229 227 227 228 228 227 225 224 222 218 214 213 213 215 218 217 214 210 207 202 197 199 203 206 221 243 272 290 296 302 304 307
176 201 241 289 285 165 170 230 121 122 145 225 152 121 180 195 147 137 168 174 155 106 288 237 246 212 205 271 276 252 212 210 220 225 227 228 224 219 223 231 241 254 269 277 273 262 255 251 244 237 234 231 229 228 228 225 223 223 223 221 220 219 217 212 209 210 211 211 210 207 203 200 196 195 196 197 199 210 235 260 279 284 287 294 301 305
167 204 320 337 354 44 139 252 23 109 157 181 135 156 203 168 115 115 220 52 104 139 229 187 253 278 281 291 277 250 225 216 221 232 236 235 231 227 228 233 239 247 256 266 271 263 254 251 241 233 228 226 224 222 220 218 217 217 215 214 212 210 209 207 207 207 205 203 200 197 194 191 191 194 195 196 205 222 243 260 268 273 283 295 301 305
152 114 335 7 43 338 328 78 57 43 93 117 153 190 177 72 76 120 182 17 88 233 239 176 215 259 250 272 289 247 230 232 219 225 238 236 231 229 232 238 244 247 247 252 260 256 247 242 232 224 217 214 214 213 211 209 208 208 208 208 206 204 203 203 202 199 197 195 193 190 188 189 192 194 196 203 215 231 248 257 265 275 288 296 300 304
131 108 339 354 31 287 331 96 116 18 23 117 165 170 117 129 235 142 177 189 162 221 263 225 220 229 200 221 295 243 224 238 225 210 218 223 222 226 233 238 238 236 236 241 249 245 234 225 220 215 210 208 207 206 205 203 202 202 203 203 202 201 199 197 196 193 192 190 188 187 188 191 193 195 202 211 221 236 249 258 269 280 287 292 297 301
120 121 194 339 341 190 353 220 176 170 0 40 82 75 76 166 179 166 192 192 156 195 255 255 225 241 224 210 225 225 219 225 222 208 208 217 222 230 237 236 231 230 232 236 238 233 224 216 213 210 207 205 203 202 201 200 200 200 200 199 197 197 195 193 192 191 188 186 185 188 190 192 195 199 208 216 226 239 249 259 271 278 285 292 294 294
74 97 150 52 338 162 177 235 191 171 170 152 121 142 160 161 124 130 236 195 143 168 231 246 246 259 247 208 207 220 222 211 195 173 187 211 223 237 245 241 235 232 230 232 230 224 218 212 209 206 204 203 202 201 200 199 200 199 200 199 196 194 192 191 190 188 186 186 187 189 191 194 199 205 213 222 231 242 252 261 270 278 285 290 290 288
72 92 125 134 176 183 209 329 12 181 182 174 174 176 180 172 137 140 234 208 160 175 197 209 254 265 254 221 195 207 208 185 162 148 174 207 222 235 244 240 236 232 227 226 224 220 215 209 207 204 201 202 202 201 200 200 200 199 199 197 195 193 192 190 188 187 187 188 190 192 194 198 205 211 218 227 235 244 254 262 272 279 283 285 285 286
85 94 106 121 166 193 282 324 354 289 240 172 218 196 175 177 162 167 201 199 183 214 135 154 265 269 260 265 139 164 149 139 156 187 210 235 239 234 237 231 228 228 225 224 221 218 215 209 206 204 202 202 202 202 203 202 201 200 199 197 196 194 192 190 190 190 191 192 194 196 199 203 210 217 223 231 239 247 256 264 272 277 280 282 284 285
102 100 105 87 46 339 297 291 310 295 243 214 245 215 175 193 187 170 181 164 165 193 152 168 254 262 264 269 224 284 299 206 231 237 231 238 240 236 234 224 221 220 219 221 220 217 216 211 207 206 205 204 204 205 207 206 204 203 201 200 198 195 193 193 193 194 195 197 199 201 204 209 216 221 227 234 242 251 258 264 271 274 278 281 282 282
158 137 119 114 102 9 348 315 275 250 212 203 224 185 163 170 149 128 110 113 158 209 174 174 244 253 263 323 0 300 293 277 261 252 243 241 240 240 236 224 221 217 213 216 219 218 217 214 213 211 210 209 209 210 212 212 210 208 207 204 200 197 197 196 196 197 200 203 206 208 210 214 220 225 231 237 244 253 259 264 269 273 276 279 278 275
167 167 149 153 168 179 194 206 210 198 179 176 124 163 171 164 153 162 176 132 209 227 179 172 243 253 255 38 3 273 265 267 261 250 245 244 239 238 238 231 225 219 216 218 221 221 220 219 219 218 216 216 216 217 218 218 216 213 211 208 204 202 200 199 200 202 206 210 212 213 215 219 224 229 234 241 247 254 259 262 268 272 275 276 271 265
149 185 181 191 198 199 205 202 136 111 140 193 202 184 185 187 176 167 154 171 203 213 197 212 241 257 258 219 192 238 230 237 247 231 227 235 233 226 227 232 229 223 223 226 227 226 223 222 224 224 223 222 221 222 223 223 221 217 214 210 207 205 203 202 205 208 211 214 216 218 220 223 229 233 237 243 248 253 258 263 268 271 273 270 263 257
114 201 197 206 217 220 218 148 129 135 168 196 196 188 189 190 177 164 180 204 196 180 238 237 232 252 257 234 203 224 225 232 243 227 224 232 235 227 221 224 227 226 229 232 232 232 229 228 229 227 226 225 224 225 225 225 224 220 217 214 211 208 206 206 210 213 215 218 220 222 224 228 233 236 239 244 249 254 260 263 266 268 267 262 256 254
127 201 202 205 223 236 229 142 152 165 184 194 190 190 190 186 179 182 200 208 193 192 234 234 226 241 252 244 222 216 205 216 232 230 225 228 233 229 218 217 224 230 235 238 240 240 237 235 233 231 229 228 227 227 228 227 226 223 220 217 214 211 210 211 214 217 219 221 224 226 229 231 235 239 242 246 250 255 258 259 262 263 260 255 252 251
111 196 196 178 220 249 232 186 181 179 185 195 195 195 190 187 190 195 205 210 204 206 225 231 234 245 251 245 232 220 214 225 234 223 209 215 223 222 214 217 228 240 248 252 253 251 247 241 237 234 233 232 231 231 232 231 229 227 223 220 217 215 214 215 218 221 222 225 227 229 231 234 237 241 244 247 250 252 253 255 259 258 253 249 247 244
134 200 173 145 203 253 208 191 193 178 180 197 202 199 192 191 200 206 212 214 210 214 227 233 244 255 251 239 237 236 225 224 222 203 207 219 220 215 214 222 241 262 269 268 262 258 254 247 240 237 236 237 237 236 235 234 232 229 225 222 221 219 219 220 222 224 226 228 230 231 232 235 239 242 244 246 248 247 249 254 255 251 245 241 239 233
161 208 106 125 180 237 193 181 171 124 115 198 211 204 196 195 203 210 214 215 208 211 228 236 241 250 248 227 239 248 225 203 202 204 212 219 215 217 226 234 257 275 278 277 270 264 260 253 247 245 244 244 242 239 238 237 234 231 227 225 224 223 223 224 225 227 228 230 231 231 233 236 239 241 244 245 245 244 249 253 249 243 238 234 228 222
160 165 161 147 179 232 203 172 147 99 85 240 225 205 200 201 205 210 218 222 213 205 215 222 231 243 246 181 237 253 211 187 210 212 216 223 221 223 232 246 268 273 272 276 275 268 267 264 260 259 256 252 248 243 241 239 236 234 231 229 227 226 225 225 226 227 228 229 230 231 232 236 238 241 244 244 243 244 247 247 241 235 231 224 218 213
167 171 181 162 178 233 191 142 124 131 204 232 222 197 198 204 202 205 216 220 215 211 216 227 240 252 253 191 232 247 219 211 223 224 226 230 226 225 238 254 265 266 267 274 277 274 273 270 267 266 263 258 253 248 245 241 239 237 234 232 229 227 227 227 227 228 228 229 230 230 232 236 238 241 242 240 240 242 243 240 233 228 223 216 212 208
171 174 175 167 174 193 120 116 139 202 226 237 209 179 201 208 199 202 218 222 216 215 223 240 253 260 252 231 230 238 240 235 230 228 230 230 229 233 246 253 255 259 264 269 271 272 271 266 261 261 261 260 255 251 248 244 242 239 236 233 231 230 229 229 229 229 229 230 231 232 235 238 239 239 238 237 238 239 238 233 227 222 216 211 208 204
166 172 174 173 154 120 114 152 189 231 264 270 159 185 203 206 197 204 226 235 227 216 220 235 247 250 247 243 240 244 254 250 238 233 231 228 231 234 235 241 247 253 259 261 261 263 265 264 261 260 262 262 259 255 253 250 247 243 238 235 233 232 231 230 230 230 230 231 233 236 239 239 238 237 235 235 236 235 232 227 221 215 211 208 205 202
163 164 169 185 175 154 160 189 217 309 329 247 202 199 190 189 190 194 225 246 235 217 217 225 238 246 245 247 249 248 252 263 263 249 235 221 220 225 231 244 254 256 257 258 257 257 261 265 266 265 265 264 261 259 257 256 255 250 242 238 235 233 232 231 231 232 232 234 236 239 240 238 236 235 233 234 234 231 226 221 215 211 209 206 203 201
167 164 169 187 194 154 146 182 222 261 256 239 214 176 172 179 175 164 197 248 240 217 217 222 236 246 246 239 227 206 200 253 285 262 242 221 220 234 244 251 255 255 254 254 255 256 260 265 269 270 269 266 263 261 259 259 259 254 247 241 237 236 234 232 232 233 234 237 239 239 238 236 234 234 233 233 230 225 220 215 211 210 207 204 203 202
132 161 165 173 193 173 172 206 199 203 247 244 189 150 173 169 149 122 160 248 250 218 212 218 230 241 240 203 181 169 151 203 261 262 251 235 242 252 256 256 253 249 250 253 255 257 261 265 269 272 274 273 271 267 264 261 257 253 247 242 239 237 236 235 235 236 237 239 239 237 235 233 232 232 231 229 224 219 215 213 210 209 206 204 204 205
108 141 168 179 204 196 185 218 218 225 256 230 172 177 169 152 133 112 188 251 246 183 197 215 225 233 225 193 183 171 164 214 246 264 261 247 252 258 257 255 252 249 251 256 259 262 264 268 271 273 275 276 275 272 268 263 256 250 245 241 238 236 236 236 236 237 237 236 235 233 231 230 229 229 226 223 219 215 212 211 210 208 206 205 206 208
136 200 190 191 208 204 194 219 242 258 249 212 171 163 150 139 135 165 213 240 143 152 193 215 222 224 209 189 186 196 221 233 243 258 260 229 228 245 248 249 247 247 253 259 262 266 269 270 271 273 275 275 274 272 267 260 254 248 243 239 236 235 234 234 234 233 233 231 229 229 228 226 225 223 219 216 214 213 211 210 210 208 207 208 210 211
170 185 197 198 208 211 206 214 257 269 241 193 154 153 148 144 179 206 197 68 109 156 195 211 217 221 209 200 207 221 236 242 244 249 250 224 219 241 253 254 248 247 256 262 265 267 269 269 270 272 272 272 272 271 266 258 250 245 241 237 235 233 233 232 231 229 228 227 227 226 223 221 218 216 214 213 211 211 211 210 209 209 210 211 212 214
170 164 189 205 195 198 207 187 211 258 220 142 131 146 164 177 203 174 155 104 115 161 187 198 214 223 213 212 224 233 243 247 244 246 248 236 234 248 257 260 260 259 261 265 266 267 268 268 269 269 269 268 267 267 265 259 251 246 241 237 235 234 232 230 228 227 226 225 224 220 217 216 213 211 211 210 210 211 210 210 210 210 211 213 215 219
174 172 193 207 189 188 207 198 209 261 152 148 155 190 213 205 187 145 165 177 158 174 198 210 224 227 218 221 230 237 244 245 242 244 245 238 241 252 258 262 265 265 266 267 268 269 271 272 272 271 269 267 264 263 262 257 252 247 241 238 237 234 231 228 226 225 223 220 217 214 212 211 209 209 209 209 210 210 209 209 209 209 211 214 217 223
190 184 178 190 191 186 202 215 219 216 177 175 186 208 207 208 210 179 174 196 202 210 225 238 240 233 225 224 227 234 241 243 242 244 245 244 248 252 253 255 258 262 266 268 268 271 272 272 272 270 267 265 263 261 259 254 250 246 243 240 237 233 230 227 224 220 217 214 212 209 209 208 207 208 209 208 209 209 206 207 208 207 210 215 220 238
187 180 164 167 197 200 223 239 232 217 191 186 198 214 205 207 214 218 222 228 229 234 246 254 254 247 232 223 223 231 239 242 241 242 243 245 247 247 248 252 257 263 267 268 268 269 268 267 268 269 267 265 262 258 256 252 248 245 242 240 236 232 228 222 218 214 211 209 208 206 206 207 207 207 208 207 206 204 202 203 205 207 216 229 248 272
199 183 172 164 175 189 222 235 230 226 214 198 204 216 206 197 209 220 229 233 238 247 251 251 252 246 231 226 226 228 232 235 236 240 245 249 253 254 256 260 264 267 269 269 267 264 262 261 262 262 262 261 258 255 251 247 244 241 237 235 231 226 220 214 211 210 207 206 206 205 205 207 207 207 206 203 199 197 197 202 211 224 240 257 269 277
190 176 177 181 179 189 222 225 217 221 222 212 214 222 217 207 212 222 230 232 235 240 243 241 238 231 223 221 220 221 229 238 246 254 259 261 262 263 264 265 265 264 264 264 263 260 257 256 254 256 258 258 257 255 251 246 242 236 228 223 218 214 210 207 206 206 206 205 205 205 206 206 205 203 199 195 194 197 205 216 230 243 255 265 274 280
147 161 177 176 184 223 267 244 182 191 226 228 235 241 238 231 225 227 232 232 229 229 232 232 228 223 218 216 220 232 245 251 255 261 264 265 266 267 266 265 262 259 256 256 255 255 254 253 252 253 254 254 254 253 249 242 234 226 217 210 206 203 203 203 203 203 204 205 204 205 205 202 198 194 192 194 201 210 220 231 243 254 264 273 282 288
140 166 183 166 181 223 247 209 168 180 247 241 240 251 247 232 223 225 230 231 230 231 233 234 235 236 238 243 249 255 254 251 250 253 256 261 265 266 265 264 260 256 252 249 247 248 249 250 251 250 249 249 248 246 242 234 224 216 208 202 199 199 200 201 203 203 202 203 203 201 198 193 190 192 198 207 216 222 230 242 252 263 273 283 290 294
162 164 164 166 188 217 229 186 182 199 222 200 35 343 281 222 220 227 231 235 238 240 241 244 248 250 253 256 255 252 248 246 245 246 250 254 257 258 260 261 259 256 254 251 251 252 252 250 250 248 246 244 243 240 235 226 216 209 203 198 197 199 199 201 203 203 202 201 196 192 190 191 197 206 213 217 223 230 239 248 258 270 281 287 290 288